| time (UTC) | temp F | wind direction | speed MPH | gust MPH | rain 1hr in | rain 24hr in | rain mn in | humidity % | barometer mb |
| 20260507024901 | 47 | 140 | 0.0 | 2.0 | 0.01 | 0.15 | 0.46 | 93 | 972.1 |
| 20260507024354 | 47 | 123 | 0.0 | 3.0 | 0.01 | 0.15 | 0.46 | 93 | 972.0 |
| 20260507023848 | 47 | 290 | 0.0 | 6.0 | 0.02 | 0.15 | 0.46 | 93 | 972.1 |
| 20260507023342 | 47 | 286 | 0.0 | 6.0 | 0.02 | 0.15 | 0.46 | 93 | 972.1 |
| 20260507022330 | 48 | 279 | 0.0 | 0.0 | 0.02 | 0.15 | 0.46 | 93 | 972.1 |
| 20260507021824 | 48 | 279 | 0.0 | 0.0 | 0.02 | 0.15 | 0.46 | 93 | 972.0 |
| 20260507021318 | 48 | 279 | 0.0 | 0.0 | 0.03 | 0.15 | 0.46 | 93 | 972.0 |
| 20260507020813 | 48 | 279 | 0.0 | 0.0 | 0.04 | 0.15 | 0.46 | 93 | 972.2 |
| 20260507020307 | 48 | 279 | 0.0 | 0.0 | 0.06 | 0.15 | 0.46 | 93 | 972.1 |
| 20260507015800 | 48 | 279 | 0.0 | 0.0 | 0.06 | 0.14 | 0.45 | 93 | 971.9 |
| 20260507015254 | 48 | 279 | 0.0 | 0.0 | 0.06 | 0.14 | 0.45 | 93 | 972.1 |
| 20260507013736 | 48 | 279 | 0.0 | 0.0 | 0.06 | 0.13 | 0.44 | 93 | 971.9 |
| 20260507013231 | 48 | 279 | 0.0 | 0.0 | 0.06 | 0.13 | 0.44 | 93 | 971.9 |
| 20260507012219 | 48 | 279 | 0.0 | 0.0 | 0.07 | 0.13 | 0.44 | 93 | 972.0 |
| 20260507011713 | 48 | 279 | 0.0 | 1.0 | 0.07 | 0.13 | 0.44 | 93 | 971.9 |
| 20260507011206 | 48 | 279 | 0.0 | 3.0 | 0.06 | 0.12 | 0.43 | 92 | 971.8 |
| 20260507005648 | 49 | 70 | 0.0 | 4.0 | 0.02 | 0.08 | 0.39 | 92 | 971.7 |
| 20260507005143 | 49 | 61 | 0.0 | 4.0 | 0.02 | 0.08 | 0.39 | 92 | 971.6 |
| 20260507004638 | 49 | 46 | 0.0 | 2.0 | 0.02 | 0.07 | 0.38 | 92 | 971.5 |
| 20260507003625 | 49 | 155 | 0.0 | 4.0 | 0.02 | 0.07 | 0.38 | 92 | 971.4 |
| 20260507002612 | 50 | 194 | 0.0 | 5.0 | 0.01 | 0.06 | 0.38 | 92 | 971.1 |
| 20260507002106 | 50 | 187 | 0.0 | 5.0 | 0.01 | 0.06 | 0.37 | 92 | 970.9 |
| 20260507001600 | 50 | 150 | 0.0 | 4.0 | 0.01 | 0.06 | 0.37 | 92 | 971.0 |
| 20260507001055 | 51 | 146 | 0.0 | 4.0 | 0.01 | 0.06 | 0.37 | 92 | 970.7 |
| 20260507000549 | 51 | 113 | 1.0 | 6.0 | 0.01 | 0.06 | 0.37 | 92 | 970.5 |
| 20260507000043 | 51 | 111 | 0.0 | 6.0 | 0.02 | 0.06 | 0.37 | 92 | 970.5 |
| 20260506235537 | 52 | 281 | 0.0 | 2.0 | 0.04 | 0.06 | 0.37 | 92 | 970.4 |
| 20260506235030 | 52 | 164 | 0.0 | 1.0 | 0.03 | 0.05 | 0.36 | 92 | 970.0 |
| 20260506234524 | 52 | 193 | 0.0 | 4.0 | 0.05 | 0.05 | 0.36 | 92 | 970.0 |
| 20260506234019 | 53 | 220 | 0.0 | 4.0 | 0.05 | 0.05 | 0.36 | 92 | 970.0 |
| 20260506233513 | 53 | 287 | 0.0 | 1.0 | 0.05 | 0.05 | 0.36 | 92 | 969.9 |
| 20260506232500 | 54 | 144 | 0.0 | 2.0 | 0.05 | 0.05 | 0.36 | 92 | 969.7 |
| 20260506231954 | 54 | 105 | 0.0 | 0.0 | 0.05 | 0.05 | 0.36 | 92 | 969.6 |
| 20260506231449 | 55 | 215 | 0.0 | 0.0 | 0.05 | 0.05 | 0.36 | 91 | 969.3 |
| 20260506230943 | 55 | 275 | 0.0 | 1.0 | 0.05 | 0.05 | 0.36 | 91 | 969.2 |
| 20260506230437 | 55 | 275 | 0.0 | 1.0 | 0.05 | 0.05 | 0.36 | 91 | 969.1 |
| 20260506225934 | 56 | 289 | 0.0 | 7.0 | 0.03 | 0.03 | 0.35 | 90 | 969.1 |
| 20260506225434 | 57 | 295 | 0.0 | 7.0 | 0.02 | 0.02 | 0.33 | 89 | 968.9 |
| 20260506224935 | 59 | 103 | 0.0 | 4.0 | 0.02 | 0.02 | 0.33 | 91 | 968.7 |
| 20260506224440 | 59 | 272 | 0.0 | 3.0 | 0.00 | 0.00 | 0.31 | 92 | 968.4 |
| 20260506223933 | 60 | 184 | 0.0 | 3.0 | 0.00 | 0.00 | 0.31 | 92 | 968.0 |
| 20260506223431 | 60 | 196 | 0.0 | 1.0 | 0.00 | 0.00 | 0.31 | 92 | 967.9 |
| 20260506222929 | 59 | 232 | 0.0 | 3.0 | 0.00 | 0.00 | 0.31 | 92 | 968.0 |
| 20260506222429 | 60 | 265 | 0.0 | 3.0 | 0.00 | 0.00 | 0.31 | 92 | 968.0 |
| 20260506221928 | 59 | 286 | 0.0 | 4.0 | 0.00 | 0.00 | 0.31 | 92 | 968.1 |
| 20260506221426 | 59 | 254 | 0.0 | 4.0 | 0.00 | 0.00 | 0.31 | 92 | 967.9 |
| 20260506220925 | 60 | 169 | 0.0 | 5.0 | 0.00 | 0.00 | 0.31 | 92 | 968.1 |
| 20260506215925 | 60 | 298 | 0.0 | 1.0 | 0.00 | 0.00 | 0.31 | 92 | 968.1 |
| 20260506215422 | 60 | 177 | 0.0 | 1.0 | 0.00 | 0.00 | 0.31 | 92 | 968.1 |
| 20260506214921 | 60 | 199 | 0.0 | 1.0 | 0.00 | 0.00 | 0.31 | 92 | 968.2 |
| 20260506214421 | 60 | 163 | 0.0 | 2.0 | 0.00 | 0.00 | 0.31 | 92 | 968.1 |
| 20260506213419 | 59 | 271 | 0.0 | 4.0 | 0.00 | 0.00 | 0.31 | 92 | 968.1 |
| 20260506212912 | 59 | 313 | 0.0 | 4.0 | 0.00 | 0.00 | 0.31 | 92 | 968.2 |
| 20260506212413 | 59 | 279 | 0.0 | 5.0 | 0.00 | 0.00 | 0.31 | 92 | 968.2 |